Location: Franzen
(48.6167°N, 15.3833°E)
Time: 19:30:23
(UTC+00:00)

Transit 2A - Pass Details

Date: 05 August 2021
Orbit: 594 x 964 km, 66.7° (Epoch: 27 September)

Event Time Altitude Azimuth Distance (km) Brightness Sun altitude
Rises 13:21:25 0° 320° (NW) 3,258 9.3 47.7°
Reaches altitude 10° 13:23:48 10° 314° (NW) 2,384 8.8 47.4°
Maximum altitude 13:29:02 45° 243° (WSW) 1,153 10.0 46.7°
Drops below altitude 10° 13:34:44 10° 173° (S) 2,590 9.1 45.9°
Sets 13:37:26 0° 167° (SSE) 3,568 9.6 45.6°
